www.pogodaiklimat.ru

Погода и климат >> Архив погоды >> Россия >> Якутия >> Усть-Миль


ПОГОДА в Усть-Миле

  • Прогноз погоды в Усть-Миле
  • Монитор погоды в Усть-Миле
  • Климат города

АРХИВ ПОГОДЫ в Усть-Миле

Время (UTC), дата Ветер
(напр.,м/с)
 
Видим.   Явления Облачность Т
(С)
Тd
(С)
f
(%)
Тe
(С)
Тes
(С)
Комфортность P
(гПа)
Po
(гПа)
Тmin
(С)
Tmax
(С)
R
(мм)
S
(см)
03 16.03 ЮВ 1 50 км 8/3
[Cb cap Ac trans]
-4.2 -10.1 63 -6 -4 1020.9 998.0
06 16.03 ЮВ 1 50 км 4/3 600 м
[Cb cap Ac trans]
+1.6 -8.3 48 +1 +3 1019.4 996.9
09 16.03 штиль 0 50 км ясно -2.0 -10.5 52 -2 -2 1019.0 996.3 +3.5
12 16.03 штиль 0 50 км ясно -10.4 -14.8 70 -11 -11 1020.7 996.8
15 16.03 штиль 0 50 км ясно -15.4 -17.3 85 -15 -15 1021.2 997.3
18 16.03 штиль 0 50 км ясно -18.9 -20.8 85 -19 -19 1021.6 997.3
21 16.03 штиль 0 50 км ясно -20.7 -21.9 90 -21 -21 1021.9 997.4 -20.8 52
00 17.03 В 1 50 км 4/0
[Ci fib]
-15.7 -18.4 80 -18 -16 1021.5 997.6
03 17.03 З 1 50 км 10/0
[Cs]
+1.5 -7.6 51 0 +6 1019.4 996.9
06 17.03 Ю 1 50 км 10/0
[Ac trans Ci fib]
+4.3 -7.6 42 +4 +6 1019.1 996.9
09 17.03 С 2 50 км 10/0
[Cs]
+2.0 -9.1 44 -0 -0 1020.4 998.1 +4.5
12 17.03 С 1 50 км 10/0
[Cs]
-4.7 -9.1 71 -7 -4 1023.9 1000.8
15 17.03 штиль 0 50 км ясно -9.0 -12.4 76 -9 -9 1025.8 1002.3
18 17.03 штиль 0 50 км ясно -14.9 -16.1 91 -15 -15 1028.3 1004.2
21 17.03 штиль 0 50 км ясно -19.3 -20.5 90 -19 -19 1029.8 1005.3 -19.5 51
00 18.03 штиль 0 50 км 8/0
[Ci fib]
-15.4 -17.3 85 -15 -12 1030.7 1006.6
03 18.03 ЮЗ 1 50 км 3/0
[Ac trans]
-4.5 -10.6 62 -6 -1 1030.0 1006.8
06 18.03 З 1 50 км 3/3 600 м
[Cu hum]
-0.5 -11.3 44 -2 +1 1029.0 1006.1
09 18.03 СВ 1 50 км ясно -2.0 -13.1 42 -3 -3 1029.4 1006.5 0.0
12 18.03 штиль 0 50 км ясно -13.1 -16.6 75 -13 -13 1030.6 1006.7
15 18.03 штиль 0 50 км ясно -19.0 -21.6 80 -19 -19 1031.7 1007.2
18 18.03 штиль 0 50 км ясно -22.2 -24.1 84 -22 -22 1032.2 1007.3
21 18.03 штиль 0 50 км ясно -26.0 -27.8 85 -26 -26 1032.7 1007.5 -26.1 51
00 19.03 З 1 50 км 9/0
[Ac trans]
-18.8 -20.7 85 -22 -20 1031.9 1007.4
03 19.03 З 1 50 км 9/0
[Ac trans]
-9.7 -14.9 66 -12 -9 1030.5 1006.9
06 19.03 З 1 50 км 8/3 600 м
[Cb cap Ac trans]
-5.2 -13.2 53 -7 -6 1028.4 1005.2
09 19.03 З 1 50 км 9/0
[Ac trans]
-4.8 -13.1 52 -7 -7 1027.4 1004.2 -2.7
12 19.03 штиль 0 50 км ясно -14.1 -18.4 70 -14 -14 1028.0 1003.9
15 19.03 штиль 0 50 км 10/0
[As op]
-16.5 -18.4 85 -17 -17 1027.8 1003.5
18 19.03 З 1 50 км 10/0
[As op]
-18.3 -20.2 85 -21 -21 1027.8 1003.3
21 19.03 штиль 0 50 км 10/0
[Ac trans Cs]
-21.3 -23.2 85 -21 -21 1027.8 1003.1 -21.4 51
00 20.03 З 1 50 км в посл. час ливневой снег 10/3 600 м
[Cb cap Cs]
-15.5 -16.7 90 -18 -16 1027.2 1003.1
03 20.03 З 2 50 км {ливн. осадки} 10/4 600 м
[Cb cap Ci fib]
-8.4 -10.6 84 -13 -10 1025.7 1002.2
06 20.03 СЗ 2 20 км слабый ливневой снег 10/6 600 м
[Cb cap Ci fib]
-1.1 -7.7 61 -4 -3 1023.5 1000.7
09 20.03 СЗ 2 50 км в посл. час ливневой снег 3/3 600 м
[Cb cap]
-3.8 -8.7 69 -8 -8 1023.3 1000.4 -0.8 0.3
12 20.03 С 1 50 км {ливн. осадки} ясно -12.0 -13.3 90 -14 -14 1023.6 1000.0
15 20.03 штиль 0 50 км ясно -18.0 -19.2 90 -18 -18 1023.7 999.5
18 20.03 штиль 0 50 км ясно -21.1 -22.3 90 -21 -21 1022.9 998.3
21 20.03 штиль 0 50 км ясно -24.5 -25.7 90 -25 -25 1022.8 997.8 -24.5 50
00 21.03 штиль 0 20 км слабый ливневой снег 8/8
[Cb cap]
-16.7 -18.6 85 -17 -16 1020.8 996.7
03 21.03 ЮЗ 2 20 км слабый ливневой снег 6/6 600 м
[Cb cap]
-5.0 -7.8 81 -9 -7 1018.4 995.4
06 21.03 СВ 2 50 км {ливн. осадки} 8/8 600 м
[Cb cap]
-1.5 -7.9 62 -5 -4 1016.9 994.2
09 21.03 В 1 50 км 1/1 600 м
[Cb cap]
-2.2 -10.3 54 -4 -4 1017.1 994.4 -1.0 0.0
12 21.03 штиль 0 50 км ясно -12.4 -15.9 75 -12 -12 1018.9 995.2
15 21.03 штиль 0 50 км ясно -18.3 -20.2 85 -18 -18 1020.5 996.2
18 21.03 штиль 0 50 км ясно -22.1 -24.0 84 -22 -22 1021.3 996.6
21 21.03 штиль 0 50 км ясно -25.0 -26.8 85 -25 -25 1022.3 997.4 -25.1 50
00 22.03 ЮЗ 1 50 км ясно -18.5 -21.1 80 -21 -18 1022.9 998.5
03 22.03 З 1 50 км 3/0
[Ci fib]
-7.6 -14.2 59 -10 -3 1022.2 998.9
06 22.03 СЗ 1 50 км 4/3 600 м
[Cb cap Ci fib]
-0.9 -9.4 52 -2 +1 1021.1 998.3
09 22.03 З 1 50 км 8/4 600 м
[Cb cap Ac trans]
-2.8 -10.8 54 -4 -4 1021.7 998.8 +1.5
12 22.03 СЗ 1 50 км 4/0
[Ac trans]
-7.7 -12.2 70 -10 -10 1022.7 999.4
15 22.03 З 1 50 км 8/0
[Ac trans]
-9.8 -12.4 81 -12 -12 1023.4 999.9
18 22.03 З 1 50 км 8/0
[Ac trans]
-11.0 -13.0 85 -13 -13 1023.3 999.7
21 22.03 З 1 50 км 10/0
[As op]
-9.2 -10.3 92 -12 -12 1023.5 999.9 -11.0 50

 

Местоположение метеостанции Усть-Миль (Якутия, Россия): широта 59.63 долгота 133.00 высота над уровнем моря 179 м.

В архиве по умолчанию представлена погода в Усть-Миле за последнюю неделю. Архивные данные за месяц целиком и за предыдущие месяцы, начиная с января 2011 года, Вы можете получить, выбрав интересующий диапазон дат из раскрывающегося списка и нажав кнопку "Ввод!".

Внимание! Время в таблицах - всемирное. Для получения местного времени необходимо прибавить поправку, которая в Усть-Миле равна 9 ч.

Смотрите также архив погоды в соседних городах и на ближайших метеорологических станциях:

Погода в Усть-Мае (Якутия, Россия) (112 км)
Погода в Усть-Юдоме (Якутия, Россия) (129 км)
Погода в Амге (Якутия, Россия) (154 км)
Погода в Учуре (Якутия, Россия) (169 км)
Погода в Тегюльте (Якутия, Россия) (191 км)
Погода в Чюльбю (Якутия, Россия) (240 км)
Погода в Югоренке (Якутия, Россия) (259 км)
Погода в Чурапче (Якутия, Россия) (268 км)
Погода в Угино (Якутия, Россия) (280 км)
Погода в Охотском Перевозе (Якутия, Россия) (284 км)

Пояснения к столбцам:

Ветер - указаны скорость ветра в м/с - средняя за 10 мин, порывы в срок и между сроками (в фигурных скобках) и направление, откуда дует ветер: С - северный, СВ - северо-восточный, В - восточный, ЮВ - юго-восточный, Ю - южный, ЮЗ - юго-западный, З - западный, СЗ - северо-западный.
Видимость - горизонтальная дальность видимости в метрах или километрах. При видимости от 1 до 10 км при отсутствии осадков обычно наблюдается дымка, при ухудшении видимости до 1 км и менее - туман. В сухую погоду видимость может ухудшаться дымом, пылью или мглою.
Явления - указаны атмосферные явления, наблюдавшиеся в срок или в последний час перед сроком; фигурными скобками обозначены явления, наблюдавшиеся между сроками (за 1-3 часа до срока); квадратными скобками обозначены град или гололедные отложения с указанием их диаметра в мм.
Облачность - указаны через наклонную черту общая и нижняя облачность в баллах и высота нижней границы облаков в метрах; квадратными скобками обозначены формы облаков: Ci - перистые, Cs - перисто-слоистые, Cc - перисто-кучевые, Ac - высококучевые, As - высокослоистые, Sc - слоисто-кучевые, Ns - слоисто-дождевые, Cu - кучевые, Cb - кучево-дождевые. Подробнее классификацию облаков см. в Атласе облаков (PDF).
T - Температура воздуха - температура, измеренная на высоте 2 м над землей.
Td - Температура точки росы - температура, при понижении до которой содержащийся в воздухе водяной пар достигнет насыщения.
f - Относительная влажность воздуха - влажноcть воздуха, измеренная на высоте 2 м над землей.
Te - Эффективная температура - температура, которую ощущает одетый по сезону человек в тени. Характеристика душности погоды. При расчете учитывается влияние влажности воздуха и скорости ветра на теплоощущения человека.
Tes - Эффективная температура на солнце - температура, которую ощущает человек, с поправкой на солнечный нагрев. Характеристика знойности погоды. Зависит от высоты солнца над горизонтом, облачности и скорости ветра. Ночью, в пасмурную погоду, а также при ветре 12 м/с и более поправка равна нулю.
P - Атмосферное давление - приведенное к уровню моря атмосферное давление.
Po - Атмосферное давление - измеренное на уровне метеостанции атмосферное давление.
Tmin - Минимальная температура - минимум температуры воздуха на высоте 2 м над землей.
Tmax - Максимальная температура - максимум температуры воздуха на высоте 2 м над землей.
R - Количество осадков - Количество выпавших осадков, мм. При наведении курсора мыши на число - период времени, за который выпало указанное количество осадков.
S - Снежный покров - Высота снежного покрова, см. При наведении курсора мыши на число - состояние снежного покрова и степень покрытия местности в баллах.